Location: Unspecified
(0.0000°N, 0.0000°E)
Time: 21:07:49
(UTC+01:00)

GPS 2-12 Rocket1 - Visible Passes

Search period start: 20 December 2014 00:00
Search period end: 30 December 2014 00:00
Orbit: 590 x 658 km, 20.0° (Epoch: 20 December)

Date Brightness Start Highest point End Pass type
(mag) Time Alt. Az. Time Alt. Az. Time Alt. Az.
20 Dec 4.7 05:15:42 23° SW 05:16:40 24° SSW 05:20:36 10° SE visible
21 Dec 6.3 03:55:05 11° SE 03:55:05 11° SE 03:55:15 10° SE visible
21 Dec 5.4 05:32:11 12° SW 05:34:33 16° SSW 05:37:30 10° SSE visible
22 Dec 5.9 04:11:32 14° SSE 04:11:32 14° SSE 04:12:28 10° SE visible
22 Dec 5.7 05:51:24 10° SSW 05:52:33 11° SSW 05:53:41 10° S visible
23 Dec 5.7 04:27:59 14° S 04:27:59 14° S 04:29:25 10° SSE visible
24 Dec 5.8 04:44:26 11° S 04:44:26 11° S 04:45:48 10° S visible
28 Dec 4.9 19:48:11 10° NNW 19:50:15 13° NNE 19:51:35 12° NE visible
29 Dec 4.4 20:04:47 10° NNW 20:08:06 21° NNE 20:08:41 20° NNE visible
